Regional Weather Roundup
Issued by NWS Jackson, KY

Home | Current Version | Previous Version | Graphics & Text | Print | Product List | Glossary On
Versions: 1 2 3 4 5 6 7 8 9 10 11 12 13 14 15 16 17 18 19 20 21 22 23 24 25 26 27 28 29 30 31 32 33 34 35 36 37 38 39 40 41 42 43 44 45 46 47 48 49 50
000
ASUS43 KJKL 311819
RWRJKL

EAST KENTUCKY HOURLY WEATHER ROUNDUP
NATIONAL WEATHER SERVICE JACKSON KY
200 PM EDT FRI OCT 31 2014

NOTE: "FAIR" INDICATES FEW OR NO CLOUDS BELOW 12,000 FEET WITH
NO SIGNIFICANT WEATHER AND/OR OBSTRUCTIONS TO VISIBILITY.

* THESE REPORTS ARE NOT UNDER NWS QUALITY CONTROL AND MAY NOT
  REPORT WEATHER SUCH AS PRECIPITATION AND FOG.

KYZ079-080-083-085-087-088-110-112-115-119-120-311900
...EASTERN KENTUCKY...

CITY           SKY/WX    TMP DP  RH WIND       PRES   REMARKS
JACKSON        LGT RAIN  44  41  89 CALM      29.91F
6HR MIN TEMP:  39; 6HR MAX TEMP:  45; 6HR PCP:  0.06;

LONDON         CLOUDY    46  42  86 W6        29.92F FOG
6HR MIN TEMP:  42; 6HR MAX TEMP:  47; 6HR PCP:  0.11;

SOMERSET*      CLOUDY    45  43  93 W7        29.95F FOG
MONTICELLO*    CLOUDY    46  45  93 W8        29.96F FOG
6HR MIN TEMP:  44; 6HR MAX TEMP:  48; 6HR PCP:  0.05;

WILLIAMSBURG*  CLOUDY    45  45 100 MISG      29.93F
MIDDLESBORO*   DRIZZLE   45  42  91 CALM      29.93F
6HR MIN TEMP:  37; 6HR MAX TEMP:  45; 6HR PCP:  0.05;

HARLAN APT*    CLOUDY    43  43 100 NE3       29.91F
BLACK MTN*       N/A     36  36 100 N2          N/A
PIKEVILLE APT* LGT RAIN  43  39  87 W3        29.89F
BIG SANDY*     DRIZZLE   46  40  80 CALM      29.90F
6HR MIN TEMP:  38; 6HR MAX TEMP:  46;

MOREHEAD APT*  CLOUDY    46  43  87 S6        29.91F
ASHLAND*       CLOUDY    46  37  71 SW6       29.88F
$$

KYZ035-036-041-042-044-050-067-078-099-311900
...CENTRAL KENTUCKY...

CITY           SKY/WX    TMP DP  RH WIND       PRES   REMARKS
MT STERLING*   DRIZZLE   45  45 100 W5        29.92F
FLEMING/MASON* LGT RAIN  45  43  93 SW9       29.90F
DANVILLE*      CLOUDY    46  43  87 NW6       29.93F
RICHMOND*      CLOUDY    45  41  87 W6        29.91F
LEXINGTON      LGT RAIN  49  43  80 W7        29.91F
6HR MIN TEMP:  46; 6HR MAX TEMP:  49; 6HR PCP:  0.03;

FRANKFORT      LGT RAIN  46  41  82 NW8       29.92F
6HR MIN TEMP:  43; 6HR MAX TEMP:  47; 6HR PCP:  0.02;

$$

KYZ091>093-OHZ055-061-077-WVZ005-015-034-035-042-311900
...SOUTHERN OHIO/WEST VIRGINIA...

CITY           SKY/WX    TMP DP  RH WIND       PRES   REMARKS
COVINGTON      LGT RAIN  42  38  85 NW18G25   29.92F
COLUMBUS       LGT RAIN  46  40  79 S7        29.87F
DAYTON         LGT RAIN  41  38  89 NW16      29.91F
WILMINGTON     LGT RAIN  43  38  82 W7        29.87F
HUNTINGTON     LGT RAIN  46  40  79 SW6       29.89F
CHARLESTON     CLOUDY    49  33  54 VRB3      29.88F
PINEVILLE*     CLOUDY    49  37  64 MISG      29.92F
BECKLEY        CLOUDY    45  33  63 VRB3      29.85F
BLUEFIELD      LGT RAIN  44  37  76 W5        29.86F
$$

VAZ002-007-008-TNZ017-027-036-066-071-311900
...SOUTHWEST VIRGINIA/EAST TENNESSEE...

CITY           SKY/WX    TMP DP  RH WIND       PRES   REMARKS
WISE*          DRIZZLE   45  36  70 SW6       29.88F
JONESVILLE*    LGT RAIN  45  43  93 CALM      29.93F
ABINGDON*      RAIN      47  40  78 NW6       29.88F
BRISTOL        CLOUDY    49  39  68 NW6       29.89F
KNOXVILLE      CLOUDY    51  41  68 W6        29.92F
OAK RIDGE      CLOUDY    53  42  66 W5        29.94F
CROSSVILLE     CLOUDY    49  39  68 NW9       29.94F
NASHVILLE      CLOUDY    50  45  83 NW9       30.01F
$$

...KEY TO REMARKS...
VSB - VISIBILITY IN MILES
WCI - WIND CHILL INDEX
HX  - HEAT INDEX

$$



USA.gov is the U.S. government's official web portal to all federal, state and local government web resources and services.